Year,Month,Day,Hour,Minute,Value (Times are PST for temperature in C)
2018,07,16,00,00,20.10
2018,07,16,00,01,20.10
2018,07,16,00,02,20.10
2018,07,16,00,03,20.10
2018,07,16,00,04,19.90
2018,07,16,00,05,19.80
2018,07,16,00,06,19.70
2018,07,16,00,07,19.60
2018,07,16,00,08,19.50
2018,07,16,00,09,19.40
2018,07,16,00,10,19.40
2018,07,16,00,11,19.30
2018,07,16,00,12,19.20
2018,07,16,00,13,19.20
2018,07,16,00,14,19.10
2018,07,16,00,15,19.10
2018,07,16,00,16,19.10
2018,07,16,00,17,19.10
2018,07,16,00,18,19.00
2018,07,16,00,19,19.00
2018,07,16,00,20,19.00
2018,07,16,00,21,18.90
2018,07,16,00,22,18.90
2018,07,16,00,23,18.90
2018,07,16,00,24,18.90
2018,07,16,00,25,18.90
2018,07,16,00,26,18.90
2018,07,16,00,27,18.90
2018,07,16,00,28,18.80
2018,07,16,00,29,18.80
2018,07,16,00,30,18.80
2018,07,16,00,31,18.80
2018,07,16,00,32,18.80
2018,07,16,00,33,18.80
2018,07,16,00,34,18.80
2018,07,16,00,35,18.80
2018,07,16,00,36,18.80
2018,07,16,00,37,18.80
2018,07,16,00,38,18.80
2018,07,16,00,39,18.70
2018,07,16,00,40,18.70
2018,07,16,00,41,18.70
2018,07,16,00,42,18.70
2018,07,16,00,43,18.70
2018,07,16,00,44,18.70
2018,07,16,00,45,18.70
2018,07,16,00,46,18.70
2018,07,16,00,47,18.70
2018,07,16,00,48,18.70
2018,07,16,00,49,18.70
2018,07,16,00,50,18.70
2018,07,16,00,51,18.70
2018,07,16,00,52,18.70
2018,07,16,00,53,18.70
2018,07,16,00,54,18.70
2018,07,16,00,55,18.80
2018,07,16,00,56,18.80
2018,07,16,00,57,18.80
2018,07,16,00,58,18.80
2018,07,16,00,59,18.80
2018,07,16,01,00,18.80
2018,07,16,01,01,18.80
2018,07,16,01,02,18.80
2018,07,16,01,03,18.80
2018,07,16,01,04,18.80
2018,07,16,01,05,18.80
2018,07,16,01,06,18.80
2018,07,16,01,07,18.80
2018,07,16,01,08,18.80
2018,07,16,01,09,18.90
2018,07,16,01,10,18.90
2018,07,16,01,11,19.00
2018,07,16,01,12,19.00
2018,07,16,01,13,19.00
2018,07,16,01,14,19.00
2018,07,16,01,15,19.00
2018,07,16,01,16,19.00
2018,07,16,01,17,18.90
2018,07,16,01,18,18.90
2018,07,16,01,19,18.90
2018,07,16,01,20,18.90
2018,07,16,01,21,18.90
2018,07,16,01,22,18.90
2018,07,16,01,23,18.90
2018,07,16,01,24,18.80
2018,07,16,01,25,18.80
2018,07,16,01,26,18.80
2018,07,16,01,27,18.90
2018,07,16,01,28,18.90
2018,07,16,01,29,18.90
2018,07,16,01,30,18.90
2018,07,16,01,31,18.90
2018,07,16,01,32,18.90
2018,07,16,01,33,18.90
2018,07,16,01,34,18.90
2018,07,16,01,35,18.90
2018,07,16,01,36,18.90
2018,07,16,01,37,18.90
2018,07,16,01,38,18.90
2018,07,16,01,39,18.90
2018,07,16,01,40,18.90
2018,07,16,01,41,18.90
2018,07,16,01,42,18.90
2018,07,16,01,43,18.80
2018,07,16,01,44,18.80
2018,07,16,01,45,18.80
2018,07,16,01,46,18.80
2018,07,16,01,47,18.70
2018,07,16,01,48,18.70
2018,07,16,01,49,18.70
2018,07,16,01,50,18.70
2018,07,16,01,51,18.70
2018,07,16,01,52,18.70
2018,07,16,01,53,18.70
2018,07,16,01,54,18.70
2018,07,16,01,55,18.70
2018,07,16,01,56,18.70
2018,07,16,01,57,18.70
2018,07,16,01,58,18.70
2018,07,16,01,59,18.60
2018,07,16,02,00,18.70
2018,07,16,02,01,18.70
2018,07,16,02,02,18.60
2018,07,16,02,03,18.60
2018,07,16,02,04,18.60
2018,07,16,02,05,18.60
2018,07,16,02,06,18.60
2018,07,16,02,07,18.60
2018,07,16,02,08,18.60
2018,07,16,02,09,18.60
2018,07,16,02,10,18.60
2018,07,16,02,11,18.60
2018,07,16,02,12,18.60
2018,07,16,02,13,18.60
2018,07,16,02,14,18.50
2018,07,16,02,15,18.50
2018,07,16,02,16,18.50
2018,07,16,02,17,18.50
2018,07,16,02,18,18.50
2018,07,16,02,19,18.40
2018,07,16,02,20,18.40
2018,07,16,02,21,18.40
2018,07,16,02,22,18.40
2018,07,16,02,23,18.40
2018,07,16,02,24,18.40
2018,07,16,02,25,18.30
2018,07,16,02,26,18.30
2018,07,16,02,27,18.30
2018,07,16,02,28,18.30
2018,07,16,02,29,18.30
2018,07,16,02,30,18.20
2018,07,16,02,31,18.20
2018,07,16,02,32,18.20
2018,07,16,02,33,18.20
2018,07,16,02,34,18.10
2018,07,16,02,35,18.10
2018,07,16,02,36,18.10
2018,07,16,02,37,18.00
2018,07,16,02,38,18.00
2018,07,16,02,39,18.00
2018,07,16,02,40,17.90
2018,07,16,02,41,17.90
2018,07,16,02,42,17.90
2018,07,16,02,43,17.90
2018,07,16,02,44,17.90
2018,07,16,02,45,17.90
2018,07,16,02,46,17.80
2018,07,16,02,47,17.80
2018,07,16,02,48,17.80
2018,07,16,02,49,17.70
2018,07,16,02,50,17.70
2018,07,16,02,51,17.60
2018,07,16,02,52,17.60
2018,07,16,02,53,17.50
2018,07,16,02,54,17.40
2018,07,16,02,55,17.40
2018,07,16,02,56,17.30
2018,07,16,02,57,17.30
2018,07,16,02,58,17.20
2018,07,16,02,59,17.20
2018,07,16,03,00,17.20
2018,07,16,03,01,17.20
2018,07,16,03,02,17.10
2018,07,16,03,03,17.10
2018,07,16,03,04,17.10
2018,07,16,03,05,17.00
2018,07,16,03,06,17.00
2018,07,16,03,07,16.90
2018,07,16,03,08,16.90
2018,07,16,03,09,16.80
2018,07,16,03,10,16.80
2018,07,16,03,11,16.80
2018,07,16,03,12,16.80
2018,07,16,03,13,16.70
2018,07,16,03,14,16.70
2018,07,16,03,15,16.60
2018,07,16,03,16,16.60
2018,07,16,03,17,16.60
2018,07,16,03,18,16.60
2018,07,16,03,19,16.60
2018,07,16,03,20,16.50
2018,07,16,03,21,16.50
2018,07,16,03,22,16.50
2018,07,16,03,23,16.50
2018,07,16,03,24,16.40
2018,07,16,03,25,16.40
2018,07,16,03,26,16.40
2018,07,16,03,27,16.40
2018,07,16,03,28,16.30
2018,07,16,03,29,16.30
2018,07,16,03,30,16.30
2018,07,16,03,31,16.30
2018,07,16,03,32,16.20
2018,07,16,03,33,16.20
2018,07,16,03,34,16.20
2018,07,16,03,35,16.20
2018,07,16,03,36,16.10
2018,07,16,03,37,16.10
2018,07,16,03,38,16.10
2018,07,16,03,39,16.10
2018,07,16,03,40,16.00
2018,07,16,03,41,16.00
2018,07,16,03,42,16.00
2018,07,16,03,43,16.00
2018,07,16,03,44,15.90
2018,07,16,03,45,15.90
2018,07,16,03,46,15.90
2018,07,16,03,47,15.90
2018,07,16,03,48,15.80
2018,07,16,03,49,15.80
2018,07,16,03,50,15.80
2018,07,16,03,51,15.80
2018,07,16,03,52,15.80
2018,07,16,03,53,15.80
2018,07,16,03,54,15.80
2018,07,16,03,55,15.70
2018,07,16,03,56,15.70
2018,07,16,03,57,15.70
2018,07,16,03,58,15.70
2018,07,16,03,59,15.70
2018,07,16,04,00,15.70
2018,07,16,04,01,15.60
2018,07,16,04,02,15.60
2018,07,16,04,03,15.60
2018,07,16,04,04,15.60
2018,07,16,04,05,15.60
2018,07,16,04,06,15.60
2018,07,16,04,07,15.60
2018,07,16,04,08,15.60
2018,07,16,04,09,15.60
2018,07,16,04,10,15.60
2018,07,16,04,11,15.60
2018,07,16,04,12,15.60
2018,07,16,04,13,15.60
2018,07,16,04,14,15.60
2018,07,16,04,15,15.60
2018,07,16,04,16,15.50
2018,07,16,04,17,15.50
2018,07,16,04,18,15.50
2018,07,16,04,19,15.50
2018,07,16,04,20,15.50
2018,07,16,04,21,15.40
2018,07,16,04,22,15.40
2018,07,16,04,23,15.40
2018,07,16,04,24,15.40
2018,07,16,04,25,15.40
2018,07,16,04,26,15.40
2018,07,16,04,27,15.40
2018,07,16,04,28,15.40
2018,07,16,04,29,15.40
2018,07,16,04,30,15.40
2018,07,16,04,31,15.40
2018,07,16,04,32,15.40
2018,07,16,04,33,15.40
2018,07,16,04,34,15.40
2018,07,16,04,35,15.40
2018,07,16,04,36,15.40
2018,07,16,04,37,15.40
2018,07,16,04,38,15.40
2018,07,16,04,39,15.40
2018,07,16,04,40,15.40
2018,07,16,04,41,15.40
2018,07,16,04,42,15.30
2018,07,16,04,43,15.30
2018,07,16,04,44,15.30
2018,07,16,04,45,15.20
2018,07,16,04,46,15.20
2018,07,16,04,47,15.10
2018,07,16,04,48,15.10
2018,07,16,04,49,15.10
2018,07,16,04,50,15.10
2018,07,16,04,51,15.00
2018,07,16,04,52,15.00
2018,07,16,04,53,15.00
2018,07,16,04,54,15.00
2018,07,16,04,55,15.00
2018,07,16,04,56,15.00
2018,07,16,04,57,15.00
2018,07,16,04,58,15.00
2018,07,16,04,59,15.00
2018,07,16,05,00,14.90
2018,07,16,05,01,14.90
2018,07,16,05,02,14.90
2018,07,16,05,03,14.90
2018,07,16,05,04,14.90
2018,07,16,05,05,14.90
2018,07,16,05,06,14.90
2018,07,16,05,07,14.90
2018,07,16,05,08,14.90
2018,07,16,05,09,15.00
2018,07,16,05,10,15.00
2018,07,16,05,11,15.00
2018,07,16,05,12,15.00
2018,07,16,05,13,14.90
2018,07,16,05,14,15.00
2018,07,16,05,15,14.90
2018,07,16,05,16,14.90
2018,07,16,05,17,14.90
2018,07,16,05,18,14.90
2018,07,16,05,19,14.90
2018,07,16,05,20,14.90
2018,07,16,05,21,14.90
2018,07,16,05,22,14.90
2018,07,16,05,23,14.90
2018,07,16,05,24,14.90
2018,07,16,05,25,14.90
2018,07,16,05,26,14.90
2018,07,16,05,27,14.90
2018,07,16,05,28,14.90
2018,07,16,05,29,14.90
2018,07,16,05,30,14.90
2018,07,16,05,31,14.90
2018,07,16,05,32,14.90
2018,07,16,05,33,14.90
2018,07,16,05,34,14.90
2018,07,16,05,35,14.90
2018,07,16,05,36,14.90
2018,07,16,05,37,14.90
2018,07,16,05,38,14.90
2018,07,16,05,39,14.90
2018,07,16,05,40,14.90
2018,07,16,05,41,15.00
2018,07,16,05,42,15.00
2018,07,16,05,43,15.10
2018,07,16,05,44,15.10
2018,07,16,05,45,15.10
2018,07,16,05,46,15.20
2018,07,16,05,47,15.30
2018,07,16,05,48,15.30
2018,07,16,05,49,15.30
2018,07,16,05,50,15.40
2018,07,16,05,51,15.40
2018,07,16,05,52,15.40
2018,07,16,05,53,15.50
2018,07,16,05,54,15.50
2018,07,16,05,55,15.50
2018,07,16,05,56,15.50
2018,07,16,05,57,15.50
2018,07,16,05,58,15.50
2018,07,16,05,59,15.50
2018,07,16,06,00,15.50
2018,07,16,06,01,15.50
2018,07,16,06,02,15.50
2018,07,16,06,03,15.50
2018,07,16,06,04,15.50
2018,07,16,06,05,15.50
2018,07,16,06,06,15.60
2018,07,16,06,07,15.60
2018,07,16,06,08,15.60
2018,07,16,06,09,15.60
2018,07,16,06,10,15.60
2018,07,16,06,11,15.60
2018,07,16,06,12,15.60
2018,07,16,06,13,15.60
2018,07,16,06,14,15.60
2018,07,16,06,15,15.60
2018,07,16,06,16,15.60
2018,07,16,06,17,15.60
2018,07,16,06,18,15.60
2018,07,16,06,19,15.70
2018,07,16,06,20,15.70
2018,07,16,06,21,15.70
2018,07,16,06,22,15.70
2018,07,16,06,23,15.70
2018,07,16,06,24,15.70
2018,07,16,06,25,15.70
2018,07,16,06,26,15.70
2018,07,16,06,27,15.70
2018,07,16,06,28,15.70
2018,07,16,06,29,15.80
2018,07,16,06,30,15.80
2018,07,16,06,31,15.80
2018,07,16,06,32,15.80
2018,07,16,06,33,15.80
2018,07,16,06,34,15.90
2018,07,16,06,35,15.90
2018,07,16,06,36,15.90
2018,07,16,06,37,15.90
2018,07,16,06,38,16.00
2018,07,16,06,39,16.00
2018,07,16,06,40,16.00
2018,07,16,06,41,16.10
2018,07,16,06,42,16.10
2018,07,16,06,43,16.10
2018,07,16,06,44,16.20
2018,07,16,06,45,16.20
2018,07,16,06,46,16.20
2018,07,16,06,47,16.20
2018,07,16,06,48,16.30
2018,07,16,06,49,16.30
2018,07,16,06,50,16.30
2018,07,16,06,51,16.30
2018,07,16,06,52,16.40
2018,07,16,06,53,16.40
2018,07,16,06,54,16.40
2018,07,16,06,55,16.50
2018,07,16,06,56,16.60
2018,07,16,06,57,16.60
2018,07,16,06,58,16.60
2018,07,16,06,59,16.70
2018,07,16,07,00,16.80
2018,07,16,07,01,16.80
2018,07,16,07,02,16.90
2018,07,16,07,03,16.90
2018,07,16,07,04,17.00
2018,07,16,07,05,17.10
2018,07,16,07,06,17.10
2018,07,16,07,07,17.20
2018,07,16,07,08,17.30
2018,07,16,07,09,17.30
2018,07,16,07,10,17.40
2018,07,16,07,11,17.40
2018,07,16,07,12,17.40
2018,07,16,07,13,17.50
2018,07,16,07,14,17.50
2018,07,16,07,15,17.60
2018,07,16,07,16,17.70
2018,07,16,07,17,17.70
2018,07,16,07,18,17.80
2018,07,16,07,19,17.80
2018,07,16,07,20,17.90
2018,07,16,07,21,17.90
2018,07,16,07,22,18.00
2018,07,16,07,23,18.10
2018,07,16,07,24,18.20
2018,07,16,07,25,18.20
2018,07,16,07,26,18.30
2018,07,16,07,27,18.40
2018,07,16,07,28,18.40
2018,07,16,07,29,18.50
2018,07,16,07,30,18.60
2018,07,16,07,31,18.60
2018,07,16,07,32,18.70
2018,07,16,07,33,18.80
2018,07,16,07,34,18.90
2018,07,16,07,35,18.90
2018,07,16,07,36,19.00
2018,07,16,07,37,19.10
2018,07,16,07,38,19.20
2018,07,16,07,39,19.20
2018,07,16,07,40,19.30
2018,07,16,07,41,19.30
2018,07,16,07,42,19.40
2018,07,16,07,43,19.50
2018,07,16,07,44,19.50
2018,07,16,07,45,19.60
2018,07,16,07,46,19.70
2018,07,16,07,47,19.80
2018,07,16,07,48,19.90
2018,07,16,07,49,19.90
2018,07,16,07,50,19.90
2018,07,16,07,51,20.00
2018,07,16,07,52,20.10
2018,07,16,07,53,20.10
2018,07,16,07,54,20.10
2018,07,16,07,55,20.20
2018,07,16,07,56,20.20
2018,07,16,07,57,20.30
2018,07,16,07,58,20.30
2018,07,16,07,59,20.30
2018,07,16,08,00,20.30
2018,07,16,08,01,20.40
2018,07,16,08,02,20.40
2018,07,16,08,03,20.40
2018,07,16,08,04,20.40
2018,07,16,08,05,20.40
2018,07,16,08,06,20.50
2018,07,16,08,07,20.50
2018,07,16,08,08,20.60
2018,07,16,08,09,20.60
2018,07,16,08,10,20.70
2018,07,16,08,11,20.70
2018,07,16,08,12,20.70
2018,07,16,08,13,20.70
2018,07,16,08,14,20.70
2018,07,16,08,15,20.70
2018,07,16,08,16,20.70
2018,07,16,08,17,20.70
2018,07,16,08,18,20.70
2018,07,16,08,19,20.70
2018,07,16,08,20,20.70
2018,07,16,08,21,20.70
2018,07,16,08,22,20.80
2018,07,16,08,23,20.80
2018,07,16,08,24,20.80
2018,07,16,08,25,20.80
2018,07,16,08,26,20.80
2018,07,16,08,27,20.90
2018,07,16,08,28,20.90
2018,07,16,08,29,21.00
2018,07,16,08,30,21.00
2018,07,16,08,31,21.10
2018,07,16,08,32,21.10
2018,07,16,08,33,21.20
2018,07,16,08,34,21.20
2018,07,16,08,35,21.20
2018,07,16,08,36,21.20
2018,07,16,08,37,21.20
2018,07,16,08,38,21.10
2018,07,16,08,39,21.10
2018,07,16,08,40,21.10
2018,07,16,08,41,21.10
2018,07,16,08,42,21.10
2018,07,16,08,43,21.10
2018,07,16,08,44,21.10
2018,07,16,08,45,21.10
2018,07,16,08,46,21.10
2018,07,16,08,47,21.10
2018,07,16,08,48,21.10
2018,07,16,08,49,21.00
2018,07,16,08,50,21.00
2018,07,16,08,51,21.00
2018,07,16,08,52,21.10
2018,07,16,08,53,21.10
2018,07,16,08,54,21.10
2018,07,16,08,55,21.10
2018,07,16,08,56,21.20
2018,07,16,08,57,21.20
2018,07,16,08,58,21.10
2018,07,16,08,59,21.10
2018,07,16,09,00,21.00
2018,07,16,09,01,20.90
2018,07,16,09,02,20.90
2018,07,16,09,03,20.90
2018,07,16,09,04,20.80
2018,07,16,09,05,20.80
2018,07,16,09,06,20.80
2018,07,16,09,07,20.80
2018,07,16,09,08,20.80
2018,07,16,09,09,20.80
2018,07,16,09,10,20.80
2018,07,16,09,11,20.80
2018,07,16,09,12,20.80
2018,07,16,09,13,20.80
2018,07,16,09,14,20.90
2018,07,16,09,15,20.90
2018,07,16,09,16,21.00
2018,07,16,09,17,21.00
2018,07,16,09,18,21.00
2018,07,16,09,19,21.00
2018,07,16,09,20,21.00
2018,07,16,09,21,21.00
2018,07,16,09,22,21.00
2018,07,16,09,23,21.00
2018,07,16,09,24,21.00
2018,07,16,09,25,21.10
2018,07,16,09,26,21.10
2018,07,16,09,27,21.20
2018,07,16,09,28,21.20
2018,07,16,09,29,21.20
2018,07,16,09,30,21.20
2018,07,16,09,31,21.20
2018,07,16,09,32,21.20
2018,07,16,09,33,21.20
2018,07,16,09,34,21.20
2018,07,16,09,35,21.20
2018,07,16,09,36,21.20
2018,07,16,09,37,21.20
2018,07,16,09,38,21.20
2018,07,16,09,39,21.20
2018,07,16,09,40,21.20
2018,07,16,09,41,21.20
2018,07,16,09,42,21.20
2018,07,16,09,43,21.20
2018,07,16,09,44,21.30
2018,07,16,09,45,21.30
2018,07,16,09,46,21.40
2018,07,16,09,47,21.40
2018,07,16,09,48,21.40
2018,07,16,09,49,21.50
2018,07,16,09,50,21.50
2018,07,16,09,51,21.60
2018,07,16,09,52,21.60
2018,07,16,09,53,21.60
2018,07,16,09,54,21.70
2018,07,16,09,55,21.70
2018,07,16,09,56,21.80
2018,07,16,09,57,21.80
2018,07,16,09,58,21.80
2018,07,16,09,59,21.80
2018,07,16,10,00,21.80
2018,07,16,10,01,21.80
2018,07,16,10,02,21.90
2018,07,16,10,03,21.90
2018,07,16,10,04,22.00
2018,07,16,10,05,22.00
2018,07,16,10,06,22.10
2018,07,16,10,07,22.20
2018,07,16,10,08,22.20
2018,07,16,10,09,22.30
2018,07,16,10,10,22.30
2018,07,16,10,11,22.40
2018,07,16,10,12,22.40
2018,07,16,10,13,22.40
2018,07,16,10,14,22.50
2018,07,16,10,15,22.50
2018,07,16,10,16,22.60
2018,07,16,10,17,22.60
2018,07,16,10,18,22.60
2018,07,16,10,19,22.60
2018,07,16,10,20,22.60
2018,07,16,10,21,22.60
2018,07,16,10,22,22.60
2018,07,16,10,23,22.60
2018,07,16,10,24,22.60
2018,07,16,10,25,22.70
2018,07,16,10,26,22.70
2018,07,16,10,27,22.70
2018,07,16,10,28,22.70
2018,07,16,10,29,22.70
2018,07,16,10,30,22.80
2018,07,16,10,31,22.80
2018,07,16,10,32,22.90
2018,07,16,10,33,23.00
2018,07,16,10,34,23.10
2018,07,16,10,35,23.20
2018,07,16,10,36,23.10
2018,07,16,10,37,22.90
2018,07,16,10,38,22.60
2018,07,16,10,39,22.40
2018,07,16,10,40,22.30
2018,07,16,10,41,22.20
2018,07,16,10,42,22.10
2018,07,16,10,43,22.10
2018,07,16,10,44,22.10
2018,07,16,10,45,22.10
2018,07,16,10,46,22.10
2018,07,16,10,47,22.30
2018,07,16,10,48,22.50
2018,07,16,10,49,22.70
2018,07,16,10,50,22.90
2018,07,16,10,51,23.10
2018,07,16,10,52,23.20
2018,07,16,10,53,23.40
2018,07,16,10,54,23.60
2018,07,16,10,55,23.80
2018,07,16,10,56,23.90
2018,07,16,10,57,24.00
2018,07,16,10,58,24.10
2018,07,16,10,59,24.20
2018,07,16,11,00,24.20
2018,07,16,11,01,24.30
2018,07,16,11,02,24.40
2018,07,16,11,03,24.40
2018,07,16,11,04,24.50
2018,07,16,11,05,24.60
2018,07,16,11,06,24.60
2018,07,16,11,07,24.70
2018,07,16,11,08,24.80
2018,07,16,11,09,24.70
2018,07,16,11,10,24.40
2018,07,16,11,11,24.20
2018,07,16,11,12,23.90
2018,07,16,11,13,23.50
2018,07,16,11,14,23.10
2018,07,16,11,15,22.80
2018,07,16,11,16,22.60
2018,07,16,11,17,22.30
2018,07,16,11,18,22.10
2018,07,16,11,19,21.90
2018,07,16,11,20,21.80
2018,07,16,11,21,21.70
2018,07,16,11,22,21.60
2018,07,16,11,23,21.50
2018,07,16,11,24,21.60
2018,07,16,11,25,21.50
2018,07,16,11,26,21.50
2018,07,16,11,27,21.50
2018,07,16,11,28,21.50
2018,07,16,11,29,21.50
2018,07,16,11,30,21.60
2018,07,16,11,31,21.60
2018,07,16,11,32,21.70
2018,07,16,11,33,21.80
2018,07,16,11,34,21.90
2018,07,16,11,35,22.00
2018,07,16,11,36,22.20
2018,07,16,11,37,22.40
2018,07,16,11,38,22.60
2018,07,16,11,39,22.90
2018,07,16,11,40,23.10
2018,07,16,11,41,23.20
2018,07,16,11,42,23.20
2018,07,16,11,43,23.10
2018,07,16,11,44,23.10
2018,07,16,11,45,23.20
2018,07,16,11,46,23.30
2018,07,16,11,47,23.40
2018,07,16,11,48,23.60
2018,07,16,11,49,23.60
2018,07,16,11,50,23.50
2018,07,16,11,51,23.40
2018,07,16,11,52,23.10
2018,07,16,11,53,22.80
2018,07,16,11,54,22.60
2018,07,16,11,55,22.50
2018,07,16,11,56,22.40
2018,07,16,11,57,22.40
2018,07,16,11,58,22.30
2018,07,16,11,59,22.10
2018,07,16,12,00,22.00
2018,07,16,12,01,21.90
2018,07,16,12,02,21.80
2018,07,16,12,03,21.70
2018,07,16,12,04,21.60
2018,07,16,12,05,21.60
2018,07,16,12,06,21.60
2018,07,16,12,07,21.50
2018,07,16,12,08,21.50
2018,07,16,12,09,21.50
2018,07,16,12,10,21.40
2018,07,16,12,11,21.40
2018,07,16,12,12,21.40
2018,07,16,12,13,21.30
2018,07,16,12,14,21.30
2018,07,16,12,15,21.40
2018,07,16,12,16,21.40
2018,07,16,12,17,21.50
2018,07,16,12,18,21.50
2018,07,16,12,19,21.40
2018,07,16,12,20,21.40
2018,07,16,12,21,21.30
2018,07,16,12,22,21.30
2018,07,16,12,23,21.20
2018,07,16,12,24,21.20
2018,07,16,12,25,21.20
2018,07,16,12,26,21.10
2018,07,16,12,27,21.00
2018,07,16,12,28,20.90
2018,07,16,12,29,20.80
2018,07,16,12,30,20.70
2018,07,16,12,31,20.70
2018,07,16,12,32,20.60
2018,07,16,12,33,20.50
2018,07,16,12,34,20.40
2018,07,16,12,35,20.50
2018,07,16,12,36,20.50
2018,07,16,12,37,20.60
2018,07,16,12,38,20.70
2018,07,16,12,39,20.70
2018,07,16,12,40,20.80
2018,07,16,12,41,20.80
2018,07,16,12,42,20.80
2018,07,16,12,43,20.70
2018,07,16,12,44,20.60
2018,07,16,12,45,20.60
2018,07,16,12,46,20.70
2018,07,16,12,47,20.70
2018,07,16,12,48,20.80
2018,07,16,12,49,20.90
2018,07,16,12,50,20.90
2018,07,16,12,51,21.00
2018,07,16,12,52,21.10
2018,07,16,12,53,21.20
2018,07,16,12,54,21.40
2018,07,16,12,55,21.60
2018,07,16,12,56,21.70
2018,07,16,12,57,21.70
2018,07,16,12,58,21.70
2018,07,16,12,59,21.60
2018,07,16,13,00,21.60
2018,07,16,13,01,21.60
2018,07,16,13,02,21.60
2018,07,16,13,03,21.60
2018,07,16,13,04,21.60
2018,07,16,13,05,21.70
2018,07,16,13,06,21.80
2018,07,16,13,07,21.90
2018,07,16,13,08,21.90
2018,07,16,13,09,22.00
2018,07,16,13,10,22.00
2018,07,16,13,11,22.10
2018,07,16,13,12,22.10
2018,07,16,13,13,22.10
2018,07,16,13,14,22.20
2018,07,16,13,15,22.30
2018,07,16,13,16,22.30
2018,07,16,13,17,22.40
2018,07,16,13,18,22.50
2018,07,16,13,19,22.50
2018,07,16,13,20,22.60
2018,07,16,13,21,22.70
2018,07,16,13,22,22.70
2018,07,16,13,23,22.70
2018,07,16,13,24,22.70
2018,07,16,13,25,22.60
2018,07,16,13,26,22.60
2018,07,16,13,27,22.50
2018,07,16,13,28,22.50
2018,07,16,13,29,22.50
2018,07,16,13,30,22.60
2018,07,16,13,31,22.60
2018,07,16,13,32,22.60
2018,07,16,13,33,22.60
2018,07,16,13,34,22.70
2018,07,16,13,35,22.80
2018,07,16,13,36,22.80
2018,07,16,13,37,22.70
2018,07,16,13,38,22.70
2018,07,16,13,39,22.80
2018,07,16,13,40,22.80
2018,07,16,13,41,22.90
2018,07,16,13,42,22.90
2018,07,16,13,43,22.90
2018,07,16,13,44,22.90
2018,07,16,13,45,22.90
2018,07,16,13,46,22.90
2018,07,16,13,47,22.80
2018,07,16,13,48,22.80
2018,07,16,13,49,22.80
2018,07,16,13,50,22.80
2018,07,16,13,51,22.90
2018,07,16,13,52,23.00
2018,07,16,13,53,23.10
2018,07,16,13,54,23.20
2018,07,16,13,55,23.30
2018,07,16,13,56,23.30
2018,07,16,13,57,23.30
2018,07,16,13,58,23.30
2018,07,16,13,59,23.30
2018,07,16,14,00,23.30
2018,07,16,14,01,23.20
2018,07,16,14,02,23.20
2018,07,16,14,03,23.30
2018,07,16,14,04,23.30
2018,07,16,14,05,23.30
2018,07,16,14,06,23.40
2018,07,16,14,07,23.50
2018,07,16,14,08,23.50
2018,07,16,14,09,23.40
2018,07,16,14,10,23.40
2018,07,16,14,11,23.30
2018,07,16,14,12,23.30
2018,07,16,14,13,23.30
2018,07,16,14,14,23.30
2018,07,16,14,15,23.30
2018,07,16,14,16,23.40
2018,07,16,14,17,23.40
2018,07,16,14,18,23.50
2018,07,16,14,19,23.60
2018,07,16,14,20,23.60
2018,07,16,14,21,23.60
2018,07,16,14,22,23.70
2018,07,16,14,23,23.70
2018,07,16,14,24,23.80
2018,07,16,14,25,23.80
2018,07,16,14,26,23.90
2018,07,16,14,27,23.90
2018,07,16,14,28,23.80
2018,07,16,14,29,23.80
2018,07,16,14,30,23.80
2018,07,16,14,31,23.80
2018,07,16,14,32,23.90
2018,07,16,14,33,23.90
2018,07,16,14,34,24.00
2018,07,16,14,35,24.10
2018,07,16,14,36,24.10
2018,07,16,14,37,24.20
2018,07,16,14,38,24.20
2018,07,16,14,39,24.30
2018,07,16,14,40,24.30
2018,07,16,14,41,24.30
2018,07,16,14,42,24.40
2018,07,16,14,43,24.50
2018,07,16,14,44,24.60
2018,07,16,14,45,24.70
2018,07,16,14,46,24.70
2018,07,16,14,47,24.70
2018,07,16,14,48,24.70
2018,07,16,14,49,24.80
2018,07,16,14,50,24.90
2018,07,16,14,51,25.00
2018,07,16,14,52,25.00
2018,07,16,14,53,24.90
2018,07,16,14,54,24.90
2018,07,16,14,55,24.90
2018,07,16,14,56,25.00
2018,07,16,14,57,25.00
2018,07,16,14,58,25.10
2018,07,16,14,59,25.20
2018,07,16,15,00,25.30
2018,07,16,15,01,25.30
2018,07,16,15,02,25.40
2018,07,16,15,03,25.40
2018,07,16,15,04,25.30
2018,07,16,15,05,25.30
2018,07,16,15,06,25.30
2018,07,16,15,07,25.20
2018,07,16,15,08,25.20
2018,07,16,15,09,25.20
2018,07,16,15,10,25.20
2018,07,16,15,11,25.10
2018,07,16,15,12,25.10
2018,07,16,15,13,25.00
2018,07,16,15,14,24.90
2018,07,16,15,15,24.80
2018,07,16,15,16,24.70
2018,07,16,15,17,24.60
2018,07,16,15,18,24.60
2018,07,16,15,19,24.60
2018,07,16,15,20,24.60
2018,07,16,15,21,24.60
2018,07,16,15,22,24.60
2018,07,16,15,23,24.50
2018,07,16,15,24,24.40
2018,07,16,15,25,24.30
2018,07,16,15,26,24.30
2018,07,16,15,27,24.40
2018,07,16,15,28,24.60
2018,07,16,15,29,24.70
2018,07,16,15,30,24.80
2018,07,16,15,31,24.80
2018,07,16,15,32,24.80
2018,07,16,15,33,24.70
2018,07,16,15,34,24.50
2018,07,16,15,35,24.40
2018,07,16,15,36,24.50
2018,07,16,15,37,24.60
2018,07,16,15,38,24.60
2018,07,16,15,39,24.70
2018,07,16,15,40,24.70
2018,07,16,15,41,24.70
2018,07,16,15,42,24.80
2018,07,16,15,43,24.70
2018,07,16,15,44,24.70
2018,07,16,15,45,24.60
2018,07,16,15,46,24.60
2018,07,16,15,47,24.60
2018,07,16,15,48,24.60
2018,07,16,15,49,24.60
2018,07,16,15,50,24.60
2018,07,16,15,51,24.60
2018,07,16,15,52,24.60
2018,07,16,15,53,24.60
2018,07,16,15,54,24.50
2018,07,16,15,55,24.50
2018,07,16,15,56,24.60
2018,07,16,15,57,24.60
2018,07,16,15,58,24.80
2018,07,16,15,59,24.80
2018,07,16,16,00,24.90
2018,07,16,16,01,24.90
2018,07,16,16,02,24.90
2018,07,16,16,03,25.00
2018,07,16,16,04,24.90
2018,07,16,16,05,25.00
2018,07,16,16,06,24.90
2018,07,16,16,07,24.90
2018,07,16,16,08,25.00
2018,07,16,16,09,25.00
2018,07,16,16,10,25.00
2018,07,16,16,11,24.90
2018,07,16,16,12,24.80
2018,07,16,16,13,24.70
2018,07,16,16,14,24.60
2018,07,16,16,15,24.50
2018,07,16,16,16,24.40
2018,07,16,16,17,24.40
2018,07,16,16,18,24.40
2018,07,16,16,19,24.40
2018,07,16,16,20,24.40
2018,07,16,16,21,24.50
2018,07,16,16,22,24.60
2018,07,16,16,23,24.70
2018,07,16,16,24,24.70
2018,07,16,16,25,24.60
2018,07,16,16,26,24.60
2018,07,16,16,27,24.60
2018,07,16,16,28,24.60
2018,07,16,16,29,24.60
2018,07,16,16,30,24.60
2018,07,16,16,31,24.60
2018,07,16,16,32,24.60
2018,07,16,16,33,24.70
2018,07,16,16,34,24.70
2018,07,16,16,35,24.70
2018,07,16,16,36,24.70
2018,07,16,16,37,24.80
2018,07,16,16,38,24.80
2018,07,16,16,39,24.80
2018,07,16,16,40,24.80
2018,07,16,16,41,24.80
2018,07,16,16,42,24.90
2018,07,16,16,43,24.90
2018,07,16,16,44,25.00
2018,07,16,16,45,25.00
2018,07,16,16,46,24.90
2018,07,16,16,47,24.80
2018,07,16,16,48,24.70
2018,07,16,16,49,24.70
2018,07,16,16,50,24.60
2018,07,16,16,51,24.60
2018,07,16,16,52,24.70
2018,07,16,16,53,24.70
2018,07,16,16,54,24.70
2018,07,16,16,55,24.70
2018,07,16,16,56,24.70
2018,07,16,16,57,24.60
2018,07,16,16,58,24.60
2018,07,16,16,59,24.60
2018,07,16,17,00,24.60
2018,07,16,17,01,24.60
2018,07,16,17,02,24.60
2018,07,16,17,03,24.60
2018,07,16,17,04,24.70
2018,07,16,17,05,24.70
2018,07,16,17,06,24.80
2018,07,16,17,07,24.80
2018,07,16,17,08,24.90
2018,07,16,17,09,24.90
2018,07,16,17,10,25.00
2018,07,16,17,11,25.00
2018,07,16,17,12,25.00
2018,07,16,17,13,25.00
2018,07,16,17,14,24.90
2018,07,16,17,15,24.90
2018,07,16,17,16,24.80
2018,07,16,17,17,24.70
2018,07,16,17,18,24.70
2018,07,16,17,19,24.80